Weather Roundup
Issued by NWS Springfield, MO

Home | Current Version | Previous Version | Text Only | Print | Product List | Glossary On
Versions: 1 2 3 4 5 6 7 8 9 10 11 12 13 14 15 16 17 18 19 20 21 22 23 24 25 26 27 28 29 30 31 32 33 34 35 36 37 38 39 40 41 42 43 44 45 46 47 48 49 50
000
NZUS99 KSGF 160557
HRRSGF

HOURLY WEATHER
NATIONAL WEATHER SERVICE SPRINGFIELD MO
1200 AM CST SAT DEC 16 2017

......SGF CWA......

CITY           SKY/WX    TMP DP  RH WIND       PRES   REMARKS
SPRINGFIELD    CLEAR     32  25  75 S10       30.04F WCI  24
6HR MIN TEMP:  30; 6HR MAX TEMP:  36;

JOPLIN         CLEAR     40  25  55 S15       30.05F WCI  32
6HR MIN TEMP:  34; 6HR MAX TEMP:  41;

WEST PLAINS    CLOUDY    33  25  72 SW6       30.09F WCI  28
6HR MIN TEMP:  30; 6HR MAX TEMP:  37;

ROLLA          CLEAR     33  24  69 SW12      30.03F WCI  24
6HR MIN TEMP:  30; 6HR MAX TEMP:  34;


......SURROUNDING SGF CWA......

CITY           SKY/WX    TMP DP  RH WIND       PRES   REMARKS
CHANUTE        CLEAR     37  23  56 S15       30.01F WCI  28
PARSONS        CLEAR     35  24  64 S5        30.03F WCI  31
COFFEYVILLE    CLEAR     39  24  55 S15       30.03F WCI  31
EMPORIA        CLEAR     38  24  57 S18       29.92F WCI  28
HARRISON AR    CLEAR     38  26  62 SW3       30.10F

......KANSAS AND MISSOURI......

CITY           SKY/WX    TMP DP  RH WIND       PRES   REMARKS
KANSAS CTY INT CLOUDY    39  25  57 SW16      29.90F WCI  30
SEDALIA        CLEAR     40  27  59 SW18      29.98F WCI  31
ST JOSEPH      CLOUDY    40  27  59 SW15      29.87F WCI  32
ST LOUIS       CLEAR     36  26  67 SW10      30.04F WCI  28
WICHITA        CLEAR     38  25  59 S12       29.95F WCI  30
TOPEKA         CLEAR    N/A N/A N/A S6        29.91S
OLATHE         CLEAR     38  25  59 S13       29.93F WCI  30

......TENNESSEE......

CITY           SKY/WX    TMP DP  RH WIND       PRES   REMARKS
MEMPHIS        NOT AVBL
NASHVILLE      CLEAR     29  22  75 S5        30.22S WCI  24

......ARKANSAS.......

CITY           SKY/WX    TMP DP  RH WIND       PRES   REMARKS
FAYETTEVILLE   CLOUDY    27  24  89 CALM      30.12F
FT SMITH       CLOUDY    31  26  82 NE3       30.16S
LITTLE ROCK    PTCLDY    35  30  82 SW8       30.20R WCI  29

......OKLAHOMA.......

CITY           SKY/WX    TMP DP  RH WIND       PRES   REMARKS
TULSA          CLEAR     41  21  44 S12       30.09F
PONCA CITY     CLEAR     41  23  48 S8G20     30.02F
MCALESTER      CLOUDY    34  23  64 SW3       30.15F
OKLAHOMA CITY  CLEAR     38  22  52 S12       30.06F WCI  30

......IOWA............

CITY           SKY/WX    TMP DP  RH WIND       PRES   REMARKS
DES MOINES     NOT AVBL
QUAD CITIES    CLOUDY    37  22  54 SW9       29.85F WCI  30

......ILLINOIS........

CITY           SKY/WX    TMP DP  RH WIND       PRES   REMARKS
QUINCY         CLEAR     35  25  66 S16       29.93F WCI  25
CHICAGO        CLOUDY    37  21  52 SW16      29.87S WCI  28



USA.gov is the U.S. government's official web portal to all federal, state and local government web resources and services.